Temp
61 61 60 61 62 62 62 63 63 63 63 63 63 63 63 62 64 64 66 66 65 66 66 65 65 66 65 64 63 63 61 60 56 60 63 61 52 50 50 50 51 51 53
60 60 59 60 59 58 59 60 61 61 63 63 64 64 64 63 63 61 63 64 63 63 64 64 65 66 64 64 63 62 61 62 58 56 60 58 51 48 49 47 49 52 50
59 58 57 57 56 56 57 59 61 60 61 61 62 61 62 63 63 63 63 63 63 63 63 63 64 64 63 64 63 62 62 61 60 57 57 59 50 48 46 47 46 48 49
57 55 55 55 55 56 57 58 58 59 59 59 60 61 61 62 62 62 63 60 58 61 61 61 62 62 63 64 63 61 60 59 59 57 57 56 46 45 46 45 42 45 44
55 54 54 54 55 55 55 56 57 57 58 58 59 59 60 60 63 59 59 59 57 58 59 60 60 59 55 58 61 61 60 58 58 56 55 51 44 41 42 44 44 43 43
52 53 54 54 54 53 53 54 55 55 56 56 57 57 57 60 57 56 56 56 56 55 55 57 59 55 57 57 56 55 58 58 57 57 55 52 50 49 45 44 43 38 36
51 52 52 52 51 51 52 52 52 52 53 53 54 55 55 56 56 56 53 53 54 54 54 55 56 58 55 57 58 56 54 55 55 57 55 54 53 51 47 43 43 40 36
49 49 49 49 49 50 50 50 50 51 51 52 53 53 53 55 54 52 51 54 52 52 52 53 55 55 56 56 56 55 57 57 56 55 56 56 56 54 49 47 43 35 33
46 46 47 47 47 47 47 47 48 49 49 50 52 52 52 53 52 51 52 51 50 50 53 54 54 53 53 53 51 52 54 55 47 49 51 52 52 50 47 40 35 34 30
44 45 46 46 46 45 45 46 47 48 49 50 50 51 52 50 51 51 51 50 47 48 49 49 50 50 51 51 50 49 49 52 42 40 41 44 45 45 45 43 37 35 31
44 44 44 45 44 45 45 45 45 46 47 47 47 49 48 48 49 51 51 49 47 45 44 46 48 49 48 49 48 47 47 51 43 39 37 35 35 34 35 35 36 36 31
43 42 42 43 44 45 42 43 43 43 43 44 45 45 47 47 49 49 49 49 48 43 42 44 46 46 46 46 47 48 48 48 38 35 33 33 32 32 32 33 33 32 33
40 40 40 41 41 42 40 40 40 41 41 42 42 41 41 44 45 47 48 48 46 43 43 44 45 45 45 46 46 47 47 40 36 33 33 32 32 32 32 31 31 31 31
37 37 38 38 39 39 40 40 39 39 39 40 39 38 38 40 41 43 44 44 44 42 43 44 45 46 47 45 45 44 37 36 35 35 33 32 32 30 29 30 28 28 27
37 37 37 37 37 37 38 38 38 40 41 39 38 38 37 37 40 45 44 42 41 42 43 43 41 40 40 40 37 34 34 35 33 32 31 30 30 30 28 29 28 28 28
35 35 35 35 35 35 35 36 41 42 42 42 42 42 42 44 44 44 43 43 43 44 41 39 37 36 36 36 34 32 32 32 31 31 30 29 29 28 28 28 28 28 27
33 34 34 35 34 33 34 33 31 36 40 41 42 42 42 42 43 42 42 42 42 43 37 36 35 34 34 35 33 32 31 30 30 29 29 29 28 28 28 27 28 28 25
34 37 33 32 32 32 32 32 32 31 31 33 39 40 41 41 41 41 41 40 36 37 35 34 34 34 33 33 33 32 29 29 29 29 29 28 28 27 27 26 27 24 23
33 32 32 32 32 33 33 32 32 32 32 32 33 36 38 39 40 39 39 33 32 33 33 34 34 34 33 33 32 30 30 29 29 28 28 28 28 27 27 27 26 29 26
32 35 35 32 31 31 31 30 30 30 31 32 30 30 33 34 31 31 31 31 31 31 33 33 34 34 33 32 31 29 29 30 28 28 28 28 28 28 28 26 25 23 22
31 31 34 31 30 30 30 29 29 29 29 29 29 32 37 33 29 29 30 30 30 31 32 33 33 33 33 33 30 29 29 28 28 28 28 28 28 27 27 26 24 24 21
31 30 30 29 30 29 29 30 30 30 29 29 30 31 35 31 28 28 29 30 30 33 33 33 33 33 33 32 31 30 29 28 28 28 28 27 27 27 26 24 24 21 17
30 29 29 29 29 31 29 29 29 29 29 29 29 30 30 29 29 28 29 29 31 32 33 33 33 33 33 32 31 31 29 28 28 29 28 27 27 25 24 23 21 18 18
29 29 29 29 29 30 29 27 28 30 30 29 30 30 29 29 29 29 28 28 29 31 31 30 32 32 32 32 31 31 30 30 30 29 28 27 26 26 24 19 18 16 15
30 28 28 28 27 27 27 27 27 28 28 28 29 30 29 29 28 27 27 27 28 29 28 29 32 32 32 31 30 30 30 31 30 29 28 28 26 23 19 18 18 16 15
29 28 28 28 27 27 26 25 24 24 24 26 28 27 27 27 27 24 25 27 29 27 27 28 31 32 31 30 30 30 32 32 31 31 30 27 25 21 19 18 16 17 14
MSLP
1010.10 1009.82 1009.66 1009.34 1008.97 1008.73 1008.52 1008.27 1007.96 1007.53 1007.07 1006.62 1006.00 1005.35 1004.72 1004.52 1004.18 1003.58 1002.97 1002.53 1002.04 1001.66 1001.33 1001.07 1000.69 1000.57 1000.46 1000.59 1000.76 1000.71 1000.67 1000.54 999.92 998.96 999.35 999.06 999.68 999.93 1000.18 1000.53 1000.75 1000.94 1001.17
1010.54 1010.36 1010.17 1009.71 1009.41 1009.22 1008.96 1008.58 1008.15 1007.75 1007.25 1006.76 1006.27 1005.54 1004.86 1004.22 1003.74 1003.47 1002.87 1002.27 1001.86 1001.31 1000.83 1000.40 999.98 999.77 999.45 999.45 999.56 999.51 999.48 999.47 999.39 998.57 998.74 998.91 999.48 999.74 1000.03 1000.32 1000.60 1001.05 1001.22
1011.01 1010.79 1010.51 1010.21 1009.96 1009.66 1009.21 1008.71 1008.18 1007.80 1007.39 1006.72 1006.24 1005.52 1004.67 1004.08 1003.38 1002.63 1002.10 1001.67 1001.25 1000.81 1000.45 1000.04 999.49 998.97 998.43 998.17 998.02 997.78 997.52 997.67 997.69 997.80 997.54 998.04 998.52 999.32 1000.03 1000.42 1000.51 1001.02 1001.28
1011.54 1011.22 1010.89 1010.54 1010.25 1009.81 1009.31 1008.89 1008.35 1007.74 1007.31 1006.68 1005.99 1005.29 1004.53 1003.84 1003.06 1002.29 1001.56 1001.22 1000.90 1000.48 999.98 999.40 998.77 998.23 997.71 997.18 996.79 996.34 996.31 996.29 996.29 996.52 996.63 997.21 997.63 998.06 999.00 999.39 999.86 1000.27 1000.57
1011.99 1011.57 1011.14 1010.65 1010.22 1009.90 1009.57 1009.07 1008.52 1007.89 1007.25 1006.65 1005.83 1005.07 1004.32 1003.47 1002.71 1002.30 1001.83 1001.26 1000.76 1000.12 999.53 998.91 998.22 997.53 997.19 996.71 996.25 995.56 995.26 995.02 994.80 994.96 995.09 995.55 996.60 997.52 997.43 998.02 998.24 999.03 999.41
1012.57 1012.23 1011.68 1011.15 1010.73 1010.32 1009.79 1009.15 1008.48 1007.91 1007.16 1006.52 1005.80 1004.89 1004.19 1003.41 1002.65 1002.29 1001.68 1001.11 1000.41 999.79 999.02 998.21 997.53 996.93 996.21 995.82 995.40 994.80 994.41 994.16 993.28 993.82 993.18 993.24 994.14 995.04 995.75 996.66 997.20 998.67 999.03
1012.99 1012.64 1012.30 1011.95 1011.43 1010.88 1010.20 1009.44 1008.71 1007.92 1007.11 1006.39 1005.70 1004.91 1004.18 1003.51 1002.76 1002.02 1001.51 1000.98 1000.44 999.96 999.18 998.27 997.14 996.21 995.66 995.05 994.33 993.79 993.17 992.74 992.55 992.15 992.31 991.71 991.97 992.78 993.78 995.19 995.66 996.60 997.18
1013.52 1013.09 1012.74 1012.34 1011.74 1010.94 1010.16 1009.37 1008.66 1007.88 1007.08 1006.25 1005.41 1004.65 1003.93 1003.25 1002.47 1001.97 1001.63 1001.07 1000.34 999.60 999.01 998.25 997.17 996.13 995.59 994.78 994.08 993.11 992.39 991.74 991.35 991.14 991.06 990.71 990.92 990.33 991.15 992.73 994.02 996.20 997.55
1014.02 1013.66 1013.22 1012.61 1011.82 1010.95 1010.18 1009.50 1008.76 1007.84 1007.01 1006.18 1005.27 1004.46 1003.72 1002.93 1002.14 1001.67 1001.22 1000.85 1000.29 999.45 998.34 997.69 997.13 996.22 995.38 994.86 994.19 992.96 991.77 991.00 990.87 990.62 989.86 989.79 989.42 989.92 990.71 992.65 994.03 995.59 997.17
1014.03 1013.60 1013.02 1012.36 1011.64 1010.72 1009.93 1009.41 1008.70 1007.91 1006.99 1006.01 1005.07 1004.14 1003.31 1002.66 1002.05 1001.69 1001.33 1000.68 999.95 999.52 998.55 997.73 997.13 996.18 995.10 994.71 994.02 992.97 991.66 990.96 990.83 990.53 990.40 990.30 990.24 990.57 991.04 990.74 992.07 994.20 995.97
1013.94 1013.22 1012.61 1012.00 1011.48 1010.57 1009.83 1009.24 1008.56 1007.85 1006.87 1006.02 1004.92 1003.90 1003.00 1002.59 1002.25 1001.65 1001.19 1000.64 999.91 999.37 998.58 997.44 996.70 995.85 994.89 994.14 993.53 992.62 991.41 990.61 990.29 990.14 990.50 990.82 991.33 991.85 991.97 993.03 992.52 992.83 994.50
1013.52 1013.05 1012.54 1011.96 1011.34 1010.63 1009.95 1009.13 1008.63 1007.76 1006.87 1005.69 1004.75 1003.94 1003.33 1002.95 1002.42 1001.82 1001.12 1000.51 1000.02 999.63 998.44 997.47 996.60 995.58 994.39 993.24 992.30 991.42 990.65 989.86 990.08 990.44 990.74 991.00 991.50 992.12 992.23 993.34 993.74 994.49 994.76
1013.53 1013.14 1012.53 1011.82 1011.16 1010.60 1009.90 1009.18 1008.50 1007.69 1006.83 1005.76 1005.08 1004.28 1003.72 1003.11 1002.34 1001.65 1000.91 1000.22 999.82 999.16 998.37 997.38 996.04 994.68 993.31 992.15 991.26 990.52 989.73 989.35 989.78 990.20 990.30 991.05 991.41 992.08 992.90 993.63 994.65 995.18 995.79
1013.43 1012.87 1012.13 1011.50 1010.94 1010.48 1009.94 1009.23 1008.51 1007.72 1006.70 1005.98 1005.32 1004.62 1003.93 1003.02 1002.19 1001.56 1000.73 999.99 999.36 998.70 997.86 996.51 995.08 993.74 992.41 991.65 990.71 989.78 989.20 989.23 989.77 990.01 990.51 991.05 991.70 992.57 992.82 994.02 995.03 995.89 996.02
1013.08 1012.46 1011.92 1011.43 1010.90 1010.25 1009.70 1009.19 1008.36 1007.54 1006.92 1006.18 1005.53 1004.91 1004.02 1002.92 1001.99 1001.33 1000.70 999.92 999.29 998.44 997.19 995.88 994.61 993.58 992.31 991.53 991.10 990.86 990.60 990.55 990.73 990.85 991.32 991.74 992.15 993.05 993.09 994.21 995.28 995.62 995.91
1012.86 1012.39 1011.97 1011.38 1010.78 1010.26 1009.51 1008.48 1007.95 1007.42 1006.73 1006.17 1005.47 1004.67 1003.75 1002.74 1002.04 1001.20 1000.55 999.82 998.87 997.66 996.61 995.78 994.82 994.00 992.98 992.27 991.86 991.60 991.42 991.46 991.58 991.64 991.93 992.23 992.63 993.47 993.82 993.98 995.05 995.69 996.20
1012.80 1012.28 1011.72 1011.22 1010.67 1010.04 1009.33 1008.68 1007.70 1006.61 1006.30 1005.71 1004.91 1004.13 1003.53 1002.74 1001.57 1001.17 1000.38 999.49 998.39 997.35 996.98 996.15 995.26 994.38 993.55 992.83 992.12 991.66 991.50 991.56 991.59 991.66 992.03 992.41 993.09 993.87 994.73 994.48 995.20 995.69 996.22
1012.49 1012.01 1011.45 1010.82 1010.33 1009.73 1009.15 1008.46 1007.74 1006.90 1005.88 1004.84 1004.48 1004.09 1003.32 1002.44 1001.70 1000.96 1000.27 999.42 998.32 997.78 997.31 996.55 995.54 994.61 993.67 992.93 992.16 991.67 991.51 991.43 991.44 991.73 992.05 992.54 993.22 993.83 995.00 995.05 995.38 995.68 996.48
1011.96 1011.42 1010.86 1010.32 1009.85 1009.27 1008.68 1008.11 1007.42 1006.64 1005.91 1005.17 1004.30 1003.76 1003.30 1002.52 1001.53 1000.92 1000.57 1000.04 999.11 998.23 997.45 996.57 995.79 994.64 993.63 992.85 992.10 991.81 991.67 991.63 991.69 991.73 992.21 992.72 993.15 994.05 994.88 995.29 995.51 996.07 996.84
1011.35 1010.90 1010.37 1009.82 1009.33 1008.78 1008.29 1007.72 1007.11 1006.46 1005.76 1005.09 1004.49 1003.86 1003.08 1002.22 1001.53 1000.86 1000.48 999.99 999.32 998.63 997.69 996.77 995.81 994.67 993.76 992.87 992.28 992.14 992.04 991.93 992.09 992.23 992.54 992.95 993.48 994.19 994.89 995.31 995.76 996.33 996.93
1010.85 1010.26 1009.85 1009.37 1008.93 1008.41 1007.89 1007.30 1006.73 1006.12 1005.49 1004.81 1004.20 1003.61 1002.89 1002.26 1001.78 1001.26 1000.55 999.99 999.40 998.66 997.74 996.91 995.85 994.70 993.87 992.95 992.46 992.30 992.24 992.36 992.52 992.71 993.10 993.50 993.97 994.49 995.09 995.58 996.22 996.52 996.99
1010.22 1009.74 1009.34 1008.89 1008.40 1007.90 1007.33 1006.68 1006.03 1005.52 1005.01 1004.39 1003.65 1003.14 1002.65 1002.19 1001.78 1001.24 1000.57 999.99 999.40 998.64 997.87 996.81 995.86 994.76 993.90 993.07 992.51 992.32 992.36 992.55 992.81 993.12 993.55 994.05 994.49 994.98 995.50 996.03 996.39 996.96 997.68
1009.60 1009.19 1008.77 1008.28 1007.80 1007.20 1006.64 1006.14 1005.59 1005.02 1004.42 1003.85 1003.29 1002.69 1002.29 1001.89 1001.46 1001.00 1000.40 999.85 999.21 998.33 997.54 996.88 995.79 994.62 993.81 993.07 992.55 992.30 992.41 992.77 993.08 993.43 994.01 994.49 994.98 995.49 995.95 996.30 996.96 997.68 997.90
1008.98 1008.60 1008.12 1007.55 1007.07 1006.46 1005.95 1005.53 1005.01 1004.46 1003.93 1003.36 1002.80 1002.33 1001.93 1001.51 1001.11 1000.70 1000.24 999.66 999.10 998.30 997.67 996.93 995.75 994.66 993.80 993.15 992.71 992.46 992.63 992.98 993.40 993.86 994.21 994.78 995.31 995.88 996.30 996.98 997.60 997.84 998.16
1008.26 1007.80 1007.34 1006.82 1006.34 1005.84 1005.36 1004.91 1004.45 1004.03 1003.61 1003.19 1002.50 1002.01 1001.59 1001.24 1000.88 1000.50 1000.06 999.51 998.91 998.20 997.61 996.79 995.59 994.58 993.74 993.19 992.82 992.72 992.88 993.11 993.73 994.20 994.76 995.09 995.61 996.25 997.04 997.67 997.93 998.23 998.13
1007.37 1006.95 1006.49 1006.01 1005.55 1005.13 1004.74 1004.38 1004.09 1003.72 1003.34 1002.85 1002.34 1001.84 1001.44 1001.02 1000.63 1000.29 999.91 999.27 998.56 998.22 997.45 996.53 995.40 994.40 993.71 993.27 993.02 993.02 993.08 993.47 994.14 994.67 995.04 995.52 996.21 997.02 997.70 997.96 998.37 998.42 998.40
Wind_Speed
7 7 8 7 8 8 8 9 10 10 10 10 8 8 7 7 8 9 10 12 13 15 14 15 17 17 13 11 12 12 13 13 16 14 11 6 6 5 5 3 5 7 9
7 8 8 8 7 7 7 8 9 10 10 11 12 12 12 9 8 8 12 12 13 14 15 15 19 14 17 15 12 16 14 15 13 20 14 7 5 5 5 7 6 6 7
8 7 7 7 7 7 8 9 10 11 11 11 12 12 12 13 13 11 11 12 12 12 13 14 17 17 18 15 15 16 15 13 13 13 15 8 3 3 3 5 7 7 7
7 7 7 7 7 8 9 10 11 11 12 12 12 14 14 14 14 14 13 9 7 10 11 12 15 17 18 18 16 17 16 14 13 13 14 11 2 3 2 6 6 6 7
9 8 9 7 8 9 11 12 13 13 12 12 14 13 14 12 11 12 15 14 12 13 13 13 14 16 19 19 14 17 16 15 14 13 13 8 5 4 10 7 9 7 9
7 9 9 9 9 10 10 12 12 12 13 13 15 13 14 11 16 21 18 12 11 12 13 15 15 15 15 19 21 24 24 19 18 14 14 13 13 11 6 9 7 4 5
9 11 10 12 12 12 12 12 12 11 12 13 12 13 13 15 19 22 14 9 10 13 13 14 16 12 13 13 16 18 22 26 26 21 16 14 17 15 12 11 11 7 4
10 9 11 12 13 13 13 13 13 13 13 13 14 11 14 12 18 13 15 13 13 15 14 15 16 17 17 15 15 14 17 15 17 13 17 17 15 10 17 14 10 8 7
8 10 11 12 13 13 14 14 13 14 11 11 12 15 13 14 11 13 15 12 13 16 15 17 18 17 21 22 18 16 17 17 2 9 14 15 16 20 17 11 10 11 4
9 10 11 11 12 13 13 14 13 12 15 12 14 14 17 9 11 14 16 10 12 12 14 16 21 20 23 25 18 17 16 17 6 3 2 3 5 9 17 11 14 12 7
9 10 11 11 13 13 14 13 12 15 14 15 14 14 9 9 12 18 22 13 9 12 13 13 13 26 29 29 28 18 18 19 11 6 5 5 6 5 6 5 5 9 7
10 12 13 12 11 12 14 11 14 13 16 14 13 11 9 12 17 19 25 22 18 13 15 13 16 32 34 33 25 27 28 23 6 6 6 7 7 6 7 7 7 8 5
10 11 11 12 11 12 12 13 13 12 12 12 11 11 13 13 12 22 24 23 23 16 13 21 32 32 32 24 25 27 24 5 7 6 7 5 7 8 10 8 9 10 9
11 11 11 11 14 11 10 10 11 12 11 11 12 13 13 14 13 12 12 13 20 17 19 18 22 24 22 17 17 13 1 3 5 4 5 6 8 7 9 6 6 6 5
10 11 11 10 11 12 11 11 11 10 12 13 12 12 13 14 14 22 20 15 15 20 24 13 13 13 12 11 6 6 5 4 3 3 5 6 8 7 8 8 6 5 3
11 9 9 10 10 11 11 12 17 21 24 24 25 19 13 22 28 26 27 27 31 29 13 12 12 12 12 11 5 3 2 4 3 4 5 6 7 6 7 7 6 4 5
10 11 10 12 10 10 10 10 13 15 23 23 22 24 24 26 26 28 26 29 29 22 10 11 11 11 11 10 5 3 2 3 5 5 5 6 6 5 7 6 6 6 4
10 18 11 9 9 9 10 11 10 12 13 12 14 21 23 26 28 27 27 26 13 12 11 10 12 12 11 10 9 2 3 4 5 6 7 8 7 6 5 6 6 4 3
9 9 9 8 9 12 10 10 10 11 11 11 11 14 16 25 28 25 25 10 12 12 13 12 12 11 12 10 6 1 2 4 6 6 7 7 7 7 5 5 6 9 7
8 19 17 9 9 9 9 9 10 10 10 10 9 9 11 14 11 13 11 10 10 10 13 12 12 11 11 10 4 1 1 3 5 5 6 7 7 6 6 6 4 4 3
9 9 17 10 9 9 9 10 9 10 9 10 10 10 23 13 10 11 11 11 10 11 12 12 12 11 11 9 3 1 1 2 3 4 5 6 6 6 5 5 4 3 4
9 9 9 9 9 10 10 11 10 10 10 10 10 10 22 9 7 9 10 10 9 11 10 11 11 11 10 9 4 2 2 4 5 5 6 6 6 6 5 4 4 3 3
9 9 9 10 10 15 12 10 10 10 11 10 10 10 8 8 8 8 9 9 10 11 11 11 12 11 10 7 3 2 4 5 5 7 7 7 6 6 4 4 4 3 2
9 10 11 11 10 11 10 10 10 14 14 11 10 9 8 8 8 9 9 9 10 11 9 11 12 14 12 8 3 1 4 5 6 7 10 7 7 8 4 4 4 3 3
11 11 11 11 11 11 11 10 9 10 10 11 11 10 8 8 8 7 7 8 10 8 12 12 11 14 13 9 2 4 10 16 9 10 7 7 8 7 5 4 3 4 3
11 12 11 11 10 10 9 9 9 8 8 9 10 8 8 8 8 5 7 8 10 9 12 11 14 16 12 5 3 9 17 19 15 16 8 8 7 6 5 6 6 3 3
Wind_Direction
355 358 349 346 345 356 354 352 348 340 336 328 317 308 302 299 298 299 293 287 274 268 263 257 254 249 244 239 238 241 241 239 249 260 250 235 206 180 184 193 175 183 191
5 353 342 344 354 348 341 336 336 327 325 322 320 319 314 300 290 289 290 285 283 285 282 277 271 263 253 244 237 241 241 242 245 258 254 232 200 206 196 186 193 201 213
355 350 344 345 347 339 336 336 331 326 321 319 314 310 309 308 305 294 279 278 278 279 282 288 287 279 270 259 242 242 239 238 237 246 256 246 158 158 150 207 201 217 203
344 344 341 343 342 339 333 327 324 320 316 313 314 313 313 311 305 298 292 297 296 291 283 279 279 278 278 272 261 248 242 241 240 236 244 240 175 157 172 191 185 194 198
342 344 332 341 339 336 331 325 322 318 313 311 311 309 306 307 305 318 323 317 311 301 294 286 281 275 275 271 271 270 261 246 245 241 242 220 183 173 191 196 209 190 192
342 336 326 342 338 326 319 315 311 309 313 313 309 309 314 308 319 316 308 316 309 307 303 300 291 282 279 275 268 258 260 255 261 247 241 217 216 209 172 196 176 166 190
342 327 349 340 329 323 317 315 310 311 315 301 310 303 310 312 306 299 317 325 322 316 308 309 304 291 281 282 282 271 259 255 248 260 258 239 220 202 186 183 188 189 163
326 347 340 329 323 322 319 319 317 318 310 319 308 313 304 301 292 318 352 342 323 317 313 310 306 314 309 293 292 286 285 265 253 242 249 251 248 204 189 193 177 114 78
344 336 326 321 318 319 320 318 318 310 316 309 312 307 301 299 323 339 348 331 322 316 315 318 315 310 306 309 310 298 305 278 294 291 266 262 226 186 167 137 145 154 134
329 322 317 318 316 316 312 314 311 311 312 308 307 301 298 317 331 339 336 321 318 315 319 313 308 304 309 312 309 309 299 293 213 180 88 73 155 166 168 188 152 153 124
318 317 318 318 315 315 314 313 316 313 310 309 305 301 316 327 331 328 327 322 319 325 315 312 309 308 308 307 305 296 287 293 220 170 128 112 110 95 93 110 112 146 136
325 325 322 319 319 317 312 313 311 316 305 306 305 320 320 331 319 320 319 315 332 317 310 309 306 307 302 297 298 292 288 296 162 155 154 149 141 127 113 98 91 83 62
321 316 312 313 314 313 317 318 312 310 315 305 319 321 321 315 311 314 311 316 320 317 306 303 303 298 294 295 290 289 293 193 172 172 169 153 137 124 112 97 84 91 80
311 310 313 316 316 315 311 308 313 307 308 320 318 313 311 310 308 311 309 315 319 317 313 304 300 300 300 296 297 296 6 162 177 167 147 121 124 136 122 125 125 127 111
312 314 315 314 313 310 307 306 301 301 315 312 311 306 305 303 303 308 319 318 317 311 312 309 322 325 323 319 316 354 6 17 32 72 107 122 127 145 130 131 139 147 130
312 311 307 310 307 306 304 304 304 307 309 307 305 301 302 306 312 319 321 322 316 314 317 322 323 324 326 320 317 329 6 64 89 102 111 130 134 140 138 129 134 157 148
300 304 304 305 298 300 302 306 308 309 306 307 309 311 323 306 321 321 328 322 321 330 324 323 321 323 319 315 287 242 187 156 130 123 122 120 118 119 149 136 147 153 118
293 296 296 293 292 296 299 298 300 304 308 311 317 315 319 322 318 326 329 330 323 333 325 323 318 319 318 312 304 252 165 147 137 134 133 127 130 131 163 150 154 132 115
290 292 292 292 293 295 301 299 297 299 306 306 309 316 317 316 320 324 331 323 319 326 327 325 318 318 318 312 300 274 183 166 150 140 136 143 132 137 152 148 141 148 151
295 296 299 297 297 300 299 299 301 300 301 306 307 305 312 316 323 325 325 320 323 323 325 325 319 318 318 312 299 278 180 160 146 146 144 132 125 131 143 136 123 134 135
290 289 296 299 295 297 297 294 293 296 295 298 298 300 309 321 320 314 318 319 324 321 324 321 317 316 319 313 273 240 172 125 128 113 119 121 122 125 120 113 135 131 114
292 292 292 294 296 295 292 290 294 296 294 291 296 297 305 311 299 308 313 314 321 323 317 311 322 314 318 314 270 210 153 138 131 124 121 118 117 116 114 120 116 99 83
289 291 293 292 291 294 296 292 293 295 296 296 296 297 298 299 302 307 310 315 319 318 317 325 319 313 320 315 281 194 167 152 140 132 127 121 127 114 124 122 109 97 101
294 291 290 292 293 290 296 294 290 295 299 298 300 299 297 298 301 307 310 310 316 313 324 321 314 313 318 317 281 114 113 120 130 129 126 132 124 130 107 89 92 107 87
292 290 288 288 288 288 291 290 291 299 306 304 298 299 301 302 304 305 306 311 312 321 323 317 315 313 319 318 275 120 139 136 129 124 126 123 114 109 92 95 100 77 74
289 289 288 287 287 287 289 293 294 291 293 296 298 297 296 297 298 298 300 308 317 323 321 315 315 315 319 327 135 151 150 142 133 132 129 116 117 102 102 104 97 96 89